Index of /20260427/WXO-DD/model_rdps/10km/12/007
Name Last modified Size Description
Parent Directory -
20260427T12Z_MSC_RDPS_AbsoluteVorticity_IsbL-0250_RLatLon0.09_PT007H.grib2 2026-04-27 14:43 603K
20260427T12Z_MSC_RDPS_AbsoluteVorticity_IsbL-0500_RLatLon0.09_PT007H.grib2 2026-04-27 14:43 555K
20260427T12Z_MSC_RDPS_AbsoluteVorticity_IsbL-0700_RLatLon0.09_PT007H.grib2 2026-04-27 14:43 620K
20260427T12Z_MSC_RDPS_AbsoluteVorticity_IsbL-0850_RLatLon0.09_PT007H.grib2 2026-04-27 14:43 783K
20260427T12Z_MSC_RDPS_AirTemp_AGL-120m_RLatLon0.09_PT007H.grib2 2026-04-27 14:43 398K
20260427T12Z_MSC_RDPS_AirTemp_AGL-2m_RLatLon0.09_PT007H.grib2 2026-04-27 14:43 636K
20260427T12Z_MSC_RDPS_AirTemp_AGL-40m_RLatLon0.09_PT007H.grib2 2026-04-27 14:43 406K
20260427T12Z_MSC_RDPS_AirTemp_AGL-80m_RLatLon0.09_PT007H.grib2 2026-04-27 14:43 401K
20260427T12Z_MSC_RDPS_AirTemp_IsbL-0001_RLatLon0.09_PT007H.grib2 2026-04-27 14:43 279K
20260427T12Z_MSC_RDPS_AirTemp_IsbL-0005_RLatLon0.09_PT007H.grib2 2026-04-27 14:43 326K
20260427T12Z_MSC_RDPS_AirTemp_IsbL-0010_RLatLon0.09_PT007H.grib2 2026-04-27 14:43 296K
20260427T12Z_MSC_RDPS_AirTemp_IsbL-0020_RLatLon0.09_PT007H.grib2 2026-04-27 14:43 311K
20260427T12Z_MSC_RDPS_AirTemp_IsbL-0030_RLatLon0.09_PT007H.grib2 2026-04-27 14:43 325K
20260427T12Z_MSC_RDPS_AirTemp_IsbL-0050_RLatLon0.09_PT007H.grib2 2026-04-27 14:43 308K
20260427T12Z_MSC_RDPS_AirTemp_IsbL-0100_RLatLon0.09_PT007H.grib2 2026-04-27 14:43 416K
20260427T12Z_MSC_RDPS_AirTemp_IsbL-0150_RLatLon0.09_PT007H.grib2 2026-04-27 14:43 416K
20260427T12Z_MSC_RDPS_AirTemp_IsbL-0175_RLatLon0.09_PT007H.grib2 2026-04-27 14:43 409K
20260427T12Z_MSC_RDPS_AirTemp_IsbL-0200_RLatLon0.09_PT007H.grib2 2026-04-27 14:43 417K
20260427T12Z_MSC_RDPS_AirTemp_IsbL-0225_RLatLon0.09_PT007H.grib2 2026-04-27 14:43 419K
20260427T12Z_MSC_RDPS_AirTemp_IsbL-0250_RLatLon0.09_PT007H.grib2 2026-04-27 14:43 424K
20260427T12Z_MSC_RDPS_AirTemp_IsbL-0275_RLatLon0.09_PT007H.grib2 2026-04-27 14:43 406K
20260427T12Z_MSC_RDPS_AirTemp_IsbL-0300_RLatLon0.09_PT007H.grib2 2026-04-27 14:43 409K
20260427T12Z_MSC_RDPS_AirTemp_IsbL-0350_RLatLon0.09_PT007H.grib2 2026-04-27 14:43 421K
20260427T12Z_MSC_RDPS_AirTemp_IsbL-0400_RLatLon0.09_PT007H.grib2 2026-04-27 14:43 422K
20260427T12Z_MSC_RDPS_AirTemp_IsbL-0450_RLatLon0.09_PT007H.grib2 2026-04-27 14:43 430K
20260427T12Z_MSC_RDPS_AirTemp_IsbL-0500_RLatLon0.09_PT007H.grib2 2026-04-27 14:43 405K
20260427T12Z_MSC_RDPS_AirTemp_IsbL-0550_RLatLon0.09_PT007H.grib2 2026-04-27 14:43 425K
20260427T12Z_MSC_RDPS_AirTemp_IsbL-0600_RLatLon0.09_PT007H.grib2 2026-04-27 14:43 445K
20260427T12Z_MSC_RDPS_AirTemp_IsbL-0650_RLatLon0.09_PT007H.grib2 2026-04-27 14:43 459K
20260427T12Z_MSC_RDPS_AirTemp_IsbL-0700_RLatLon0.09_PT007H.grib2 2026-04-27 14:43 488K
20260427T12Z_MSC_RDPS_AirTemp_IsbL-0750_RLatLon0.09_PT007H.grib2 2026-04-27 14:43 419K
20260427T12Z_MSC_RDPS_AirTemp_IsbL-0800_RLatLon0.09_PT007H.grib2 2026-04-27 14:43 466K
20260427T12Z_MSC_RDPS_AirTemp_IsbL-0850_RLatLon0.09_PT007H.grib2 2026-04-27 14:43 509K
20260427T12Z_MSC_RDPS_AirTemp_IsbL-0875_RLatLon0.09_PT007H.grib2 2026-04-27 14:43 523K
20260427T12Z_MSC_RDPS_AirTemp_IsbL-0900_RLatLon0.09_PT007H.grib2 2026-04-27 14:43 539K
20260427T12Z_MSC_RDPS_AirTemp_IsbL-0925_RLatLon0.09_PT007H.grib2 2026-04-27 14:43 539K
20260427T12Z_MSC_RDPS_AirTemp_IsbL-0950_RLatLon0.09_PT007H.grib2 2026-04-27 14:43 541K
20260427T12Z_MSC_RDPS_AirTemp_IsbL-0970_RLatLon0.09_PT007H.grib2 2026-04-27 14:43 539K
20260427T12Z_MSC_RDPS_AirTemp_IsbL-0985_RLatLon0.09_PT007H.grib2 2026-04-27 14:43 534K
20260427T12Z_MSC_RDPS_AirTemp_IsbL-1000_RLatLon0.09_PT007H.grib2 2026-04-27 14:43 519K
20260427T12Z_MSC_RDPS_AirTemp_IsbL-1015_RLatLon0.09_PT007H.grib2 2026-04-27 14:43 514K
20260427T12Z_MSC_RDPS_Albedo_Sfc_RLatLon0.09_PT007H.grib2 2026-04-27 14:43 163K
20260427T12Z_MSC_RDPS_CAPE_Sfc_RLatLon0.09_PT007H.grib2 2026-04-27 14:43 1.8M
20260427T12Z_MSC_RDPS_CIN_Sfc_RLatLon0.09_PT007H.grib2 2026-04-27 14:43 1.1M
20260427T12Z_MSC_RDPS_CloudWater_EAtm_RLatLon0.09_PT007H.grib2 2026-04-27 14:43 218K
20260427T12Z_MSC_RDPS_ConvectivePrecip-Accum_Sfc_RLatLon0.09_PT007H.grib2 2026-04-27 14:43 538K
20260427T12Z_MSC_RDPS_DewPointDepression_AGL-2m_RLatLon0.09_PT007H.grib2 2026-04-27 14:43 424K
20260427T12Z_MSC_RDPS_DewPointDepression_IsbL-0001_RLatLon0.09_PT007H.grib2 2026-04-27 14:43 193
20260427T12Z_MSC_RDPS_DewPointDepression_IsbL-0005_RLatLon0.09_PT007H.grib2 2026-04-27 14:43 193
20260427T12Z_MSC_RDPS_DewPointDepression_IsbL-0010_RLatLon0.09_PT007H.grib2 2026-04-27 14:43 193
20260427T12Z_MSC_RDPS_DewPointDepression_IsbL-0020_RLatLon0.09_PT007H.grib2 2026-04-27 14:43 193
20260427T12Z_MSC_RDPS_DewPointDepression_IsbL-0030_RLatLon0.09_PT007H.grib2 2026-04-27 14:43 193
20260427T12Z_MSC_RDPS_DewPointDepression_IsbL-0050_RLatLon0.09_PT007H.grib2 2026-04-27 14:43 86K
20260427T12Z_MSC_RDPS_DewPointDepression_IsbL-0100_RLatLon0.09_PT007H.grib2 2026-04-27 14:43 123K
20260427T12Z_MSC_RDPS_DewPointDepression_IsbL-0150_RLatLon0.09_PT007H.grib2 2026-04-27 14:43 153K
20260427T12Z_MSC_RDPS_DewPointDepression_IsbL-0175_RLatLon0.09_PT007H.grib2 2026-04-27 14:43 185K
20260427T12Z_MSC_RDPS_DewPointDepression_IsbL-0200_RLatLon0.09_PT007H.grib2 2026-04-27 14:43 227K
20260427T12Z_MSC_RDPS_DewPointDepression_IsbL-0225_RLatLon0.09_PT007H.grib2 2026-04-27 14:43 267K
20260427T12Z_MSC_RDPS_DewPointDepression_IsbL-0250_RLatLon0.09_PT007H.grib2 2026-04-27 14:43 302K
20260427T12Z_MSC_RDPS_DewPointDepression_IsbL-0275_RLatLon0.09_PT007H.grib2 2026-04-27 14:43 312K
20260427T12Z_MSC_RDPS_DewPointDepression_IsbL-0300_RLatLon0.09_PT007H.grib2 2026-04-27 14:43 328K
20260427T12Z_MSC_RDPS_DewPointDepression_IsbL-0350_RLatLon0.09_PT007H.grib2 2026-04-27 14:43 333K
20260427T12Z_MSC_RDPS_DewPointDepression_IsbL-0400_RLatLon0.09_PT007H.grib2 2026-04-27 14:43 345K
20260427T12Z_MSC_RDPS_DewPointDepression_IsbL-0450_RLatLon0.09_PT007H.grib2 2026-04-27 14:43 354K
20260427T12Z_MSC_RDPS_DewPointDepression_IsbL-0500_RLatLon0.09_PT007H.grib2 2026-04-27 14:43 355K
20260427T12Z_MSC_RDPS_DewPointDepression_IsbL-0550_RLatLon0.09_PT007H.grib2 2026-04-27 14:43 365K
20260427T12Z_MSC_RDPS_DewPointDepression_IsbL-0600_RLatLon0.09_PT007H.grib2 2026-04-27 14:43 380K
20260427T12Z_MSC_RDPS_DewPointDepression_IsbL-0650_RLatLon0.09_PT007H.grib2 2026-04-27 14:43 388K
20260427T12Z_MSC_RDPS_DewPointDepression_IsbL-0700_RLatLon0.09_PT007H.grib2 2026-04-27 14:43 403K
20260427T12Z_MSC_RDPS_DewPointDepression_IsbL-0750_RLatLon0.09_PT007H.grib2 2026-04-27 14:43 430K
20260427T12Z_MSC_RDPS_DewPointDepression_IsbL-0800_RLatLon0.09_PT007H.grib2 2026-04-27 14:43 464K
20260427T12Z_MSC_RDPS_DewPointDepression_IsbL-0850_RLatLon0.09_PT007H.grib2 2026-04-27 14:43 485K
20260427T12Z_MSC_RDPS_DewPointDepression_IsbL-0875_RLatLon0.09_PT007H.grib2 2026-04-27 14:43 483K
20260427T12Z_MSC_RDPS_DewPointDepression_IsbL-0900_RLatLon0.09_PT007H.grib2 2026-04-27 14:43 473K
20260427T12Z_MSC_RDPS_DewPointDepression_IsbL-0925_RLatLon0.09_PT007H.grib2 2026-04-27 14:43 463K
20260427T12Z_MSC_RDPS_DewPointDepression_IsbL-0950_RLatLon0.09_PT007H.grib2 2026-04-27 14:43 454K
20260427T12Z_MSC_RDPS_DewPointDepression_IsbL-0970_RLatLon0.09_PT007H.grib2 2026-04-27 14:43 446K
20260427T12Z_MSC_RDPS_DewPointDepression_IsbL-0985_RLatLon0.09_PT007H.grib2 2026-04-27 14:43 441K
20260427T12Z_MSC_RDPS_DewPointDepression_IsbL-1000_RLatLon0.09_PT007H.grib2 2026-04-27 14:43 436K
20260427T12Z_MSC_RDPS_DewPointDepression_IsbL-1015_RLatLon0.09_PT007H.grib2 2026-04-27 14:43 429K
20260427T12Z_MSC_RDPS_DewPoint_AGL-2m_RLatLon0.09_PT007H.grib2 2026-04-27 14:43 407K
20260427T12Z_MSC_RDPS_DownwardLongwaveRadiationFlux-Accum_Sfc_RLatLon0.09_PT007H.grib2 2026-04-27 14:43 543K
20260427T12Z_MSC_RDPS_DownwardShortwaveRadiationFlux-Accum_NTAtm_RLatLon0.09_PT007H.grib2 2026-04-27 14:43 117K
20260427T12Z_MSC_RDPS_DownwardShortwaveRadiationFlux-Accum_Sfc_RLatLon0.09_PT007H.grib2 2026-04-27 14:43 486K
20260427T12Z_MSC_RDPS_FreezingRain-Accum1h_Sfc_RLatLon0.09_PT007H.grib2 2026-04-27 14:43 5.5K
20260427T12Z_MSC_RDPS_FreezingRain-Accum_Sfc_RLatLon0.09_PT007H.grib2 2026-04-27 14:43 44K
20260427T12Z_MSC_RDPS_GeopotentialHeight_IsbL-0001_RLatLon0.09_PT007H.grib2 2026-04-27 14:43 277K
20260427T12Z_MSC_RDPS_GeopotentialHeight_IsbL-0005_RLatLon0.09_PT007H.grib2 2026-04-27 14:43 342K
20260427T12Z_MSC_RDPS_GeopotentialHeight_IsbL-0010_RLatLon0.09_PT007H.grib2 2026-04-27 14:43 342K
20260427T12Z_MSC_RDPS_GeopotentialHeight_IsbL-0020_RLatLon0.09_PT007H.grib2 2026-04-27 14:43 307K
20260427T12Z_MSC_RDPS_GeopotentialHeight_IsbL-0030_RLatLon0.09_PT007H.grib2 2026-04-27 14:43 308K
20260427T12Z_MSC_RDPS_GeopotentialHeight_IsbL-0050_RLatLon0.09_PT007H.grib2 2026-04-27 14:43 310K
20260427T12Z_MSC_RDPS_GeopotentialHeight_IsbL-0100_RLatLon0.09_PT007H.grib2 2026-04-27 14:43 289K
20260427T12Z_MSC_RDPS_GeopotentialHeight_IsbL-0150_RLatLon0.09_PT007H.grib2 2026-04-27 14:43 230K
20260427T12Z_MSC_RDPS_GeopotentialHeight_IsbL-0175_RLatLon0.09_PT007H.grib2 2026-04-27 14:43 234K
20260427T12Z_MSC_RDPS_GeopotentialHeight_IsbL-0200_RLatLon0.09_PT007H.grib2 2026-04-27 14:43 236K
20260427T12Z_MSC_RDPS_GeopotentialHeight_IsbL-0225_RLatLon0.09_PT007H.grib2 2026-04-27 14:43 269K
20260427T12Z_MSC_RDPS_GeopotentialHeight_IsbL-0250_RLatLon0.09_PT007H.grib2 2026-04-27 14:43 270K
20260427T12Z_MSC_RDPS_GeopotentialHeight_IsbL-0275_RLatLon0.09_PT007H.grib2 2026-04-27 14:43 239K
20260427T12Z_MSC_RDPS_GeopotentialHeight_IsbL-0300_RLatLon0.09_PT007H.grib2 2026-04-27 14:43 238K
20260427T12Z_MSC_RDPS_GeopotentialHeight_IsbL-0350_RLatLon0.09_PT007H.grib2 2026-04-27 14:43 234K
20260427T12Z_MSC_RDPS_GeopotentialHeight_IsbL-0400_RLatLon0.09_PT007H.grib2 2026-04-27 14:43 229K
20260427T12Z_MSC_RDPS_GeopotentialHeight_IsbL-0450_RLatLon0.09_PT007H.grib2 2026-04-27 14:43 297K
20260427T12Z_MSC_RDPS_GeopotentialHeight_IsbL-0500_RLatLon0.09_PT007H.grib2 2026-04-27 14:43 292K
20260427T12Z_MSC_RDPS_GeopotentialHeight_IsbL-0550_RLatLon0.09_PT007H.grib2 2026-04-27 14:43 288K
20260427T12Z_MSC_RDPS_GeopotentialHeight_IsbL-0600_RLatLon0.09_PT007H.grib2 2026-04-27 14:43 286K
20260427T12Z_MSC_RDPS_GeopotentialHeight_IsbL-0650_RLatLon0.09_PT007H.grib2 2026-04-27 14:43 284K
20260427T12Z_MSC_RDPS_GeopotentialHeight_IsbL-0700_RLatLon0.09_PT007H.grib2 2026-04-27 14:43 283K
20260427T12Z_MSC_RDPS_GeopotentialHeight_IsbL-0750_RLatLon0.09_PT007H.grib2 2026-04-27 14:43 258K
20260427T12Z_MSC_RDPS_GeopotentialHeight_IsbL-0800_RLatLon0.09_PT007H.grib2 2026-04-27 14:43 264K
20260427T12Z_MSC_RDPS_GeopotentialHeight_IsbL-0850_RLatLon0.09_PT007H.grib2 2026-04-27 14:43 272K
20260427T12Z_MSC_RDPS_GeopotentialHeight_IsbL-0875_RLatLon0.09_PT007H.grib2 2026-04-27 14:43 274K
20260427T12Z_MSC_RDPS_GeopotentialHeight_IsbL-0900_RLatLon0.09_PT007H.grib2 2026-04-27 14:43 278K
20260427T12Z_MSC_RDPS_GeopotentialHeight_IsbL-0925_RLatLon0.09_PT007H.grib2 2026-04-27 14:43 369K
20260427T12Z_MSC_RDPS_GeopotentialHeight_IsbL-0950_RLatLon0.09_PT007H.grib2 2026-04-27 14:43 372K
20260427T12Z_MSC_RDPS_GeopotentialHeight_IsbL-0970_RLatLon0.09_PT007H.grib2 2026-04-27 14:43 379K
20260427T12Z_MSC_RDPS_GeopotentialHeight_IsbL-0985_RLatLon0.09_PT007H.grib2 2026-04-27 14:43 389K
20260427T12Z_MSC_RDPS_GeopotentialHeight_IsbL-1000_RLatLon0.09_PT007H.grib2 2026-04-27 14:43 402K
20260427T12Z_MSC_RDPS_GeopotentialHeight_IsbL-1015_RLatLon0.09_PT007H.grib2 2026-04-27 14:43 417K
20260427T12Z_MSC_RDPS_Humidex_Sfc_RLatLon0.09_PT007H.grib2 2026-04-27 14:43 2.4M
20260427T12Z_MSC_RDPS_IcePellets-Accum1h_Sfc_RLatLon0.09_PT007H.grib2 2026-04-27 14:43 3.5K
20260427T12Z_MSC_RDPS_IcePellets-Accum_Sfc_RLatLon0.09_PT007H.grib2 2026-04-27 14:43 6.7K
20260427T12Z_MSC_RDPS_KIndex_Sfc_RLatLon0.09_PT007H.grib2 2026-04-27 14:43 2.4M
20260427T12Z_MSC_RDPS_LatentHeatNetFlux_Sfc_RLatLon0.09_PT007H.grib2 2026-04-27 14:43 314K
20260427T12Z_MSC_RDPS_LiftedIndex-MU-VT_IsbL-0500_RLatLon0.09_PT007H.grib2 2026-04-27 14:43 2.4M
20260427T12Z_MSC_RDPS_NetLongwaveRadiationFlux-Accum_Sfc_RLatLon0.09_PT007H.grib2 2026-04-27 14:43 555K
20260427T12Z_MSC_RDPS_NetShortwaveRadiationFlux-Accum_Sfc_RLatLon0.09_PT007H.grib2 2026-04-27 14:43 484K
20260427T12Z_MSC_RDPS_PlanetaryBoundaryLayerHeight_Sfc_RLatLon0.09_PT007H.grib2 2026-04-27 14:43 1.0M
20260427T12Z_MSC_RDPS_Precip-Accum1h_Sfc_RLatLon0.09_PT007H.grib2 2026-04-27 14:43 1.3M
20260427T12Z_MSC_RDPS_Precip-Accum_Sfc_RLatLon0.09_PT007H.grib2 2026-04-27 14:43 1.6M
20260427T12Z_MSC_RDPS_PrecipRate_Sfc_RLatLon0.09_PT007H.grib2 2026-04-27 14:43 182K
20260427T12Z_MSC_RDPS_PrecipType-Instant_Sfc_RLatLon0.09_PT007H.grib2 2026-04-27 14:43 582K
20260427T12Z_MSC_RDPS_Pressure-Trend3h_Sfc_RLatLon0.09_PT007H.grib2 2026-04-27 14:43 1.2M
20260427T12Z_MSC_RDPS_Pressure_MSL_RLatLon0.09_PT007H.grib2 2026-04-27 14:43 300K
20260427T12Z_MSC_RDPS_Pressure_PVU-1.5_RLatLon0.09_PT007H.grib2 2026-04-27 14:43 2.5M
20260427T12Z_MSC_RDPS_Pressure_PVU-1_RLatLon0.09_PT007H.grib2 2026-04-27 14:43 2.4M
20260427T12Z_MSC_RDPS_Pressure_PVU-2_RLatLon0.09_PT007H.grib2 2026-04-27 14:43 2.4M
20260427T12Z_MSC_RDPS_Pressure_Sfc_RLatLon0.09_PT007H.grib2 2026-04-27 14:43 500K
20260427T12Z_MSC_RDPS_RadiativeTemp_Sfc_RLatLon0.09_PT007H.grib2 2026-04-27 14:43 331K
20260427T12Z_MSC_RDPS_Rain-Accum1h_Sfc_RLatLon0.09_PT007H.grib2 2026-04-27 14:43 684K
20260427T12Z_MSC_RDPS_Rain-Accum_Sfc_RLatLon0.09_PT007H.grib2 2026-04-27 14:43 1.1M
20260427T12Z_MSC_RDPS_RelativeHumidity_AGL-2m_RLatLon0.09_PT007H.grib2 2026-04-27 14:43 1.0M
20260427T12Z_MSC_RDPS_RelativeHumidity_IsbL-0010_RLatLon0.09_PT007H.grib2 2026-04-27 14:43 628K
20260427T12Z_MSC_RDPS_RelativeHumidity_IsbL-0020_RLatLon0.09_PT007H.grib2 2026-04-27 14:43 650K
20260427T12Z_MSC_RDPS_RelativeHumidity_IsbL-0030_RLatLon0.09_PT007H.grib2 2026-04-27 14:43 533K
20260427T12Z_MSC_RDPS_RelativeHumidity_IsbL-0050_RLatLon0.09_PT007H.grib2 2026-04-27 14:43 370K
20260427T12Z_MSC_RDPS_RelativeHumidity_IsbL-0100_RLatLon0.09_PT007H.grib2 2026-04-27 14:43 269K
20260427T12Z_MSC_RDPS_RelativeHumidity_IsbL-0150_RLatLon0.09_PT007H.grib2 2026-04-27 14:43 400K
20260427T12Z_MSC_RDPS_RelativeHumidity_IsbL-0175_RLatLon0.09_PT007H.grib2 2026-04-27 14:43 475K
20260427T12Z_MSC_RDPS_RelativeHumidity_IsbL-0200_RLatLon0.09_PT007H.grib2 2026-04-27 14:43 554K
20260427T12Z_MSC_RDPS_RelativeHumidity_IsbL-0225_RLatLon0.09_PT007H.grib2 2026-04-27 14:43 615K
20260427T12Z_MSC_RDPS_RelativeHumidity_IsbL-0250_RLatLon0.09_PT007H.grib2 2026-04-27 14:43 679K
20260427T12Z_MSC_RDPS_RelativeHumidity_IsbL-0275_RLatLon0.09_PT007H.grib2 2026-04-27 14:43 712K
20260427T12Z_MSC_RDPS_RelativeHumidity_IsbL-0300_RLatLon0.09_PT007H.grib2 2026-04-27 14:43 757K
20260427T12Z_MSC_RDPS_RelativeHumidity_IsbL-0350_RLatLon0.09_PT007H.grib2 2026-04-27 14:43 776K
20260427T12Z_MSC_RDPS_RelativeHumidity_IsbL-0400_RLatLon0.09_PT007H.grib2 2026-04-27 14:43 788K
20260427T12Z_MSC_RDPS_RelativeHumidity_IsbL-0450_RLatLon0.09_PT007H.grib2 2026-04-27 14:43 799K
20260427T12Z_MSC_RDPS_RelativeHumidity_IsbL-0500_RLatLon0.09_PT007H.grib2 2026-04-27 14:43 803K
20260427T12Z_MSC_RDPS_RelativeHumidity_IsbL-0550_RLatLon0.09_PT007H.grib2 2026-04-27 14:43 828K
20260427T12Z_MSC_RDPS_RelativeHumidity_IsbL-0600_RLatLon0.09_PT007H.grib2 2026-04-27 14:43 851K
20260427T12Z_MSC_RDPS_RelativeHumidity_IsbL-0650_RLatLon0.09_PT007H.grib2 2026-04-27 14:43 868K
20260427T12Z_MSC_RDPS_RelativeHumidity_IsbL-0700_RLatLon0.09_PT007H.grib2 2026-04-27 14:43 900K
20260427T12Z_MSC_RDPS_RelativeHumidity_IsbL-0750_RLatLon0.09_PT007H.grib2 2026-04-27 14:43 949K
20260427T12Z_MSC_RDPS_RelativeHumidity_IsbL-0800_RLatLon0.09_PT007H.grib2 2026-04-27 14:43 1.0M
20260427T12Z_MSC_RDPS_RelativeHumidity_IsbL-0850_RLatLon0.09_PT007H.grib2 2026-04-27 14:43 1.1M
20260427T12Z_MSC_RDPS_RelativeHumidity_IsbL-0875_RLatLon0.09_PT007H.grib2 2026-04-27 14:43 1.1M
20260427T12Z_MSC_RDPS_RelativeHumidity_IsbL-0900_RLatLon0.09_PT007H.grib2 2026-04-27 14:43 1.1M
20260427T12Z_MSC_RDPS_RelativeHumidity_IsbL-0925_RLatLon0.09_PT007H.grib2 2026-04-27 14:43 1.1M
20260427T12Z_MSC_RDPS_RelativeHumidity_IsbL-0950_RLatLon0.09_PT007H.grib2 2026-04-27 14:43 1.1M
20260427T12Z_MSC_RDPS_RelativeHumidity_IsbL-0970_RLatLon0.09_PT007H.grib2 2026-04-27 14:43 1.1M
20260427T12Z_MSC_RDPS_RelativeHumidity_IsbL-0985_RLatLon0.09_PT007H.grib2 2026-04-27 14:43 1.0M
20260427T12Z_MSC_RDPS_RelativeHumidity_IsbL-1000_RLatLon0.09_PT007H.grib2 2026-04-27 14:43 1.0M
20260427T12Z_MSC_RDPS_RelativeHumidity_IsbL-1015_RLatLon0.09_PT007H.grib2 2026-04-27 14:43 1.0M
20260427T12Z_MSC_RDPS_Runoff-Accum_Sfc_RLatLon0.09_PT007H.grib2 2026-04-27 14:43 44K
20260427T12Z_MSC_RDPS_SWEATIndex_Sfc_RLatLon0.09_PT007H.grib2 2026-04-27 14:43 2.4M
20260427T12Z_MSC_RDPS_SeeingIndex_EAtm_RLatLon0.09_PT007H.grib2 2026-04-27 14:43 1.0M
20260427T12Z_MSC_RDPS_SensibleHeatNetFlux_Sfc_RLatLon0.09_PT007H.grib2 2026-04-27 14:43 372K
20260427T12Z_MSC_RDPS_ShowalterIndex_IsbL-0500_RLatLon0.09_PT007H.grib2 2026-04-27 14:43 2.6M
20260427T12Z_MSC_RDPS_SkyTransparencyIndex_EAtm_RLatLon0.09_PT007H.grib2 2026-04-27 14:43 738K
20260427T12Z_MSC_RDPS_Snow-Accum1h_Sfc_RLatLon0.09_PT007H.grib2 2026-04-27 14:43 362K
20260427T12Z_MSC_RDPS_Snow-Accum_Sfc_RLatLon0.09_PT007H.grib2 2026-04-27 14:43 614K
20260427T12Z_MSC_RDPS_SnowDensity_Sfc_RLatLon0.09_PT007H.grib2 2026-04-27 14:43 176K
20260427T12Z_MSC_RDPS_SnowDepth_Sfc_RLatLon0.09_PT007H.grib2 2026-04-27 14:43 710K
20260427T12Z_MSC_RDPS_SoilTemp_DBS-0to10cm_RLatLon0.09_PT007H.grib2 2026-04-27 14:43 208K
20260427T12Z_MSC_RDPS_SoilTemp_Sfc_RLatLon0.09_PT007H.grib2 2026-04-27 14:43 295K
20260427T12Z_MSC_RDPS_SoilVolumetricIceContent_Sfc_RLatLon0.09_PT007H.grib2 2026-04-27 14:43 168K
20260427T12Z_MSC_RDPS_SoilVolumetricWaterContent_DBS-0to10cm_RLatLon0.09_PT007H.grib2 2026-04-27 14:43 259K
20260427T12Z_MSC_RDPS_SoilVolumetricWaterContent_DBS-0to1cm_RLatLon0.09_PT007H.grib2 2026-04-27 14:43 332K
20260427T12Z_MSC_RDPS_SpecificHumidity_AGL-120m_RLatLon0.09_PT007H.grib2 2026-04-27 14:43 496K
20260427T12Z_MSC_RDPS_SpecificHumidity_AGL-2m_RLatLon0.09_PT007H.grib2 2026-04-27 14:43 667K
20260427T12Z_MSC_RDPS_SpecificHumidity_AGL-40m_RLatLon0.09_PT007H.grib2 2026-04-27 14:43 501K
20260427T12Z_MSC_RDPS_SpecificHumidity_AGL-80m_RLatLon0.09_PT007H.grib2 2026-04-27 14:43 498K
20260427T12Z_MSC_RDPS_SpecificHumidity_IsbL-0001_RLatLon0.09_PT007H.grib2 2026-04-27 14:43 343K
20260427T12Z_MSC_RDPS_SpecificHumidity_IsbL-0005_RLatLon0.09_PT007H.grib2 2026-04-27 14:43 356K
20260427T12Z_MSC_RDPS_SpecificHumidity_IsbL-0010_RLatLon0.09_PT007H.grib2 2026-04-27 14:43 393K
20260427T12Z_MSC_RDPS_SpecificHumidity_IsbL-0020_RLatLon0.09_PT007H.grib2 2026-04-27 14:43 386K
20260427T12Z_MSC_RDPS_SpecificHumidity_IsbL-0030_RLatLon0.09_PT007H.grib2 2026-04-27 14:43 477K
20260427T12Z_MSC_RDPS_SpecificHumidity_IsbL-0050_RLatLon0.09_PT007H.grib2 2026-04-27 14:43 464K
20260427T12Z_MSC_RDPS_SpecificHumidity_IsbL-0100_RLatLon0.09_PT007H.grib2 2026-04-27 14:43 411K
20260427T12Z_MSC_RDPS_SpecificHumidity_IsbL-0150_RLatLon0.09_PT007H.grib2 2026-04-27 14:43 372K
20260427T12Z_MSC_RDPS_SpecificHumidity_IsbL-0175_RLatLon0.09_PT007H.grib2 2026-04-27 14:43 459K
20260427T12Z_MSC_RDPS_SpecificHumidity_IsbL-0200_RLatLon0.09_PT007H.grib2 2026-04-27 14:43 457K
20260427T12Z_MSC_RDPS_SpecificHumidity_IsbL-0225_RLatLon0.09_PT007H.grib2 2026-04-27 14:43 453K
20260427T12Z_MSC_RDPS_SpecificHumidity_IsbL-0250_RLatLon0.09_PT007H.grib2 2026-04-27 14:43 551K
20260427T12Z_MSC_RDPS_SpecificHumidity_IsbL-0275_RLatLon0.09_PT007H.grib2 2026-04-27 14:43 471K
20260427T12Z_MSC_RDPS_SpecificHumidity_IsbL-0300_RLatLon0.09_PT007H.grib2 2026-04-27 14:43 541K
20260427T12Z_MSC_RDPS_SpecificHumidity_IsbL-0350_RLatLon0.09_PT007H.grib2 2026-04-27 14:43 532K
20260427T12Z_MSC_RDPS_SpecificHumidity_IsbL-0400_RLatLon0.09_PT007H.grib2 2026-04-27 14:43 512K
20260427T12Z_MSC_RDPS_SpecificHumidity_IsbL-0450_RLatLon0.09_PT007H.grib2 2026-04-27 14:43 568K
20260427T12Z_MSC_RDPS_SpecificHumidity_IsbL-0500_RLatLon0.09_PT007H.grib2 2026-04-27 14:43 502K
20260427T12Z_MSC_RDPS_SpecificHumidity_IsbL-0550_RLatLon0.09_PT007H.grib2 2026-04-27 14:43 571K
20260427T12Z_MSC_RDPS_SpecificHumidity_IsbL-0600_RLatLon0.09_PT007H.grib2 2026-04-27 14:43 625K
20260427T12Z_MSC_RDPS_SpecificHumidity_IsbL-0650_RLatLon0.09_PT007H.grib2 2026-04-27 14:43 546K
20260427T12Z_MSC_RDPS_SpecificHumidity_IsbL-0700_RLatLon0.09_PT007H.grib2 2026-04-27 14:43 597K
20260427T12Z_MSC_RDPS_SpecificHumidity_IsbL-0750_RLatLon0.09_PT007H.grib2 2026-04-27 14:43 659K
20260427T12Z_MSC_RDPS_SpecificHumidity_IsbL-0800_RLatLon0.09_PT007H.grib2 2026-04-27 14:43 745K
20260427T12Z_MSC_RDPS_SpecificHumidity_IsbL-0850_RLatLon0.09_PT007H.grib2 2026-04-27 14:43 814K
20260427T12Z_MSC_RDPS_SpecificHumidity_IsbL-0875_RLatLon0.09_PT007H.grib2 2026-04-27 14:43 838K
20260427T12Z_MSC_RDPS_SpecificHumidity_IsbL-0900_RLatLon0.09_PT007H.grib2 2026-04-27 14:43 709K
20260427T12Z_MSC_RDPS_SpecificHumidity_IsbL-0925_RLatLon0.09_PT007H.grib2 2026-04-27 14:43 711K
20260427T12Z_MSC_RDPS_SpecificHumidity_IsbL-0950_RLatLon0.09_PT007H.grib2 2026-04-27 14:43 710K
20260427T12Z_MSC_RDPS_SpecificHumidity_IsbL-0970_RLatLon0.09_PT007H.grib2 2026-04-27 14:43 701K
20260427T12Z_MSC_RDPS_SpecificHumidity_IsbL-0985_RLatLon0.09_PT007H.grib2 2026-04-27 14:43 694K
20260427T12Z_MSC_RDPS_SpecificHumidity_IsbL-1000_RLatLon0.09_PT007H.grib2 2026-04-27 14:43 687K
20260427T12Z_MSC_RDPS_SpecificHumidity_IsbL-1015_RLatLon0.09_PT007H.grib2 2026-04-27 14:43 679K
20260427T12Z_MSC_RDPS_SpecificHumidity_Sfc_RLatLon0.09_PT007H.grib2 2026-04-27 14:43 345K
20260427T12Z_MSC_RDPS_StormRelativeHelicity_EtaL-10000_RLatLon0.09_PT007H.grib2 2026-04-27 14:43 1.1M
20260427T12Z_MSC_RDPS_StormSeverityIndex_EtaL-10000_RLatLon0.09_PT007H.grib2 2026-04-27 14:43 1.1M
20260427T12Z_MSC_RDPS_Thickness_IsbL-0850to0700_RLatLon0.09_PT007H.grib2 2026-04-27 14:43 179K
20260427T12Z_MSC_RDPS_Thickness_IsbL-1000to0500_RLatLon0.09_PT007H.grib2 2026-04-27 14:43 202K
20260427T12Z_MSC_RDPS_Thickness_IsbL-1000to0850_RLatLon0.09_PT007H.grib2 2026-04-27 14:43 191K
20260427T12Z_MSC_RDPS_TotalCloudCover_Sfc_RLatLon0.09_PT007H.grib2 2026-04-27 14:43 657K
20260427T12Z_MSC_RDPS_TotalTotalsIndex_Sfc_RLatLon0.09_PT007H.grib2 2026-04-27 14:43 2.4M
20260427T12Z_MSC_RDPS_UVIndex-ClearSky_Sfc_RLatLon0.09_PT007H.grib2 2026-04-27 14:43 224K
20260427T12Z_MSC_RDPS_UVIndex_Sfc_RLatLon0.09_PT007H.grib2 2026-04-27 14:43 520K
20260427T12Z_MSC_RDPS_UpwardLongwaveRadiationFlux_NTAtm_RLatLon0.09_PT007H.grib2 2026-04-27 14:43 501K
20260427T12Z_MSC_RDPS_UpwardShortwaveRadiationFlux_NTAtm_RLatLon0.09_PT007H.grib2 2026-04-27 14:43 557K
20260427T12Z_MSC_RDPS_VerticalVelocity_IsbL-0250_RLatLon0.09_PT007H.grib2 2026-04-27 14:43 545K
20260427T12Z_MSC_RDPS_VerticalVelocity_IsbL-0500_RLatLon0.09_PT007H.grib2 2026-04-27 14:43 536K
20260427T12Z_MSC_RDPS_VerticalVelocity_IsbL-0700_RLatLon0.09_PT007H.grib2 2026-04-27 14:43 595K
20260427T12Z_MSC_RDPS_VerticalVelocity_IsbL-0850_RLatLon0.09_PT007H.grib2 2026-04-27 14:43 662K
20260427T12Z_MSC_RDPS_VerticalWindShear_EtaL-6500_RLatLon0.09_PT007H.grib2 2026-04-27 14:43 1.2M
20260427T12Z_MSC_RDPS_WindChill_Sfc_RLatLon0.09_PT007H.grib2 2026-04-27 14:43 1.1M
20260427T12Z_MSC_RDPS_WindDir_AGL-10m_RLatLon0.09_PT007H.grib2 2026-04-27 14:43 1.0M
20260427T12Z_MSC_RDPS_WindDir_AGL-120m_RLatLon0.09_PT007H.grib2 2026-04-27 14:43 619K
20260427T12Z_MSC_RDPS_WindDir_AGL-40m_RLatLon0.09_PT007H.grib2 2026-04-27 14:43 640K
20260427T12Z_MSC_RDPS_WindDir_AGL-80m_RLatLon0.09_PT007H.grib2 2026-04-27 14:43 628K
20260427T12Z_MSC_RDPS_WindDir_IsbL-0001_RLatLon0.09_PT007H.grib2 2026-04-27 14:43 271K
20260427T12Z_MSC_RDPS_WindDir_IsbL-0005_RLatLon0.09_PT007H.grib2 2026-04-27 14:43 345K
20260427T12Z_MSC_RDPS_WindDir_IsbL-0010_RLatLon0.09_PT007H.grib2 2026-04-27 14:43 370K
20260427T12Z_MSC_RDPS_WindDir_IsbL-0020_RLatLon0.09_PT007H.grib2 2026-04-27 14:43 394K
20260427T12Z_MSC_RDPS_WindDir_IsbL-0030_RLatLon0.09_PT007H.grib2 2026-04-27 14:43 386K
20260427T12Z_MSC_RDPS_WindDir_IsbL-0050_RLatLon0.09_PT007H.grib2 2026-04-27 14:43 406K
20260427T12Z_MSC_RDPS_WindDir_IsbL-0100_RLatLon0.09_PT007H.grib2 2026-04-27 14:43 409K
20260427T12Z_MSC_RDPS_WindDir_IsbL-0150_RLatLon0.09_PT007H.grib2 2026-04-27 14:43 407K
20260427T12Z_MSC_RDPS_WindDir_IsbL-0175_RLatLon0.09_PT007H.grib2 2026-04-27 14:43 426K
20260427T12Z_MSC_RDPS_WindDir_IsbL-0200_RLatLon0.09_PT007H.grib2 2026-04-27 14:43 444K
20260427T12Z_MSC_RDPS_WindDir_IsbL-0225_RLatLon0.09_PT007H.grib2 2026-04-27 14:43 448K
20260427T12Z_MSC_RDPS_WindDir_IsbL-0250_RLatLon0.09_PT007H.grib2 2026-04-27 14:43 447K
20260427T12Z_MSC_RDPS_WindDir_IsbL-0275_RLatLon0.09_PT007H.grib2 2026-04-27 14:43 466K
20260427T12Z_MSC_RDPS_WindDir_IsbL-0300_RLatLon0.09_PT007H.grib2 2026-04-27 14:43 466K
20260427T12Z_MSC_RDPS_WindDir_IsbL-0350_RLatLon0.09_PT007H.grib2 2026-04-27 14:43 489K
20260427T12Z_MSC_RDPS_WindDir_IsbL-0400_RLatLon0.09_PT007H.grib2 2026-04-27 14:43 505K
20260427T12Z_MSC_RDPS_WindDir_IsbL-0450_RLatLon0.09_PT007H.grib2 2026-04-27 14:43 524K
20260427T12Z_MSC_RDPS_WindDir_IsbL-0500_RLatLon0.09_PT007H.grib2 2026-04-27 14:43 533K
20260427T12Z_MSC_RDPS_WindDir_IsbL-0550_RLatLon0.09_PT007H.grib2 2026-04-27 14:43 548K
20260427T12Z_MSC_RDPS_WindDir_IsbL-0600_RLatLon0.09_PT007H.grib2 2026-04-27 14:43 584K
20260427T12Z_MSC_RDPS_WindDir_IsbL-0650_RLatLon0.09_PT007H.grib2 2026-04-27 14:43 626K
20260427T12Z_MSC_RDPS_WindDir_IsbL-0700_RLatLon0.09_PT007H.grib2 2026-04-27 14:43 672K
20260427T12Z_MSC_RDPS_WindDir_IsbL-0750_RLatLon0.09_PT007H.grib2 2026-04-27 14:43 725K
20260427T12Z_MSC_RDPS_WindDir_IsbL-0800_RLatLon0.09_PT007H.grib2 2026-04-27 14:43 799K
20260427T12Z_MSC_RDPS_WindDir_IsbL-0850_RLatLon0.09_PT007H.grib2 2026-04-27 14:43 869K
20260427T12Z_MSC_RDPS_WindDir_IsbL-0875_RLatLon0.09_PT007H.grib2 2026-04-27 14:43 892K
20260427T12Z_MSC_RDPS_WindDir_IsbL-0900_RLatLon0.09_PT007H.grib2 2026-04-27 14:43 908K
20260427T12Z_MSC_RDPS_WindDir_IsbL-0925_RLatLon0.09_PT007H.grib2 2026-04-27 14:43 918K
20260427T12Z_MSC_RDPS_WindDir_IsbL-0950_RLatLon0.09_PT007H.grib2 2026-04-27 14:43 917K
20260427T12Z_MSC_RDPS_WindDir_IsbL-0970_RLatLon0.09_PT007H.grib2 2026-04-27 14:43 923K
20260427T12Z_MSC_RDPS_WindDir_IsbL-0985_RLatLon0.09_PT007H.grib2 2026-04-27 14:43 933K
20260427T12Z_MSC_RDPS_WindDir_IsbL-1000_RLatLon0.09_PT007H.grib2 2026-04-27 14:43 947K
20260427T12Z_MSC_RDPS_WindDir_IsbL-1015_RLatLon0.09_PT007H.grib2 2026-04-27 14:43 963K
20260427T12Z_MSC_RDPS_WindGust-Max_AGL-10m_RLatLon0.09_PT007H.grib2 2026-04-27 14:43 947K
20260427T12Z_MSC_RDPS_WindGust-Min_AGL-10m_RLatLon0.09_PT007H.grib2 2026-04-27 14:43 927K
20260427T12Z_MSC_RDPS_WindGust_AGL-10m_RLatLon0.09_PT007H.grib2 2026-04-27 14:43 937K
20260427T12Z_MSC_RDPS_WindSpeed_AGL-10m_RLatLon0.09_PT007H.grib2 2026-04-27 14:43 844K
20260427T12Z_MSC_RDPS_WindSpeed_AGL-120m_RLatLon0.09_PT007H.grib2 2026-04-27 14:43 547K
20260427T12Z_MSC_RDPS_WindSpeed_AGL-40m_RLatLon0.09_PT007H.grib2 2026-04-27 14:43 552K
20260427T12Z_MSC_RDPS_WindSpeed_AGL-80m_RLatLon0.09_PT007H.grib2 2026-04-27 14:43 548K
20260427T12Z_MSC_RDPS_WindSpeed_IsbL-0001_RLatLon0.09_PT007H.grib2 2026-04-27 14:43 248K
20260427T12Z_MSC_RDPS_WindSpeed_IsbL-0005_RLatLon0.09_PT007H.grib2 2026-04-27 14:43 291K
20260427T12Z_MSC_RDPS_WindSpeed_IsbL-0010_RLatLon0.09_PT007H.grib2 2026-04-27 14:43 301K
20260427T12Z_MSC_RDPS_WindSpeed_IsbL-0020_RLatLon0.09_PT007H.grib2 2026-04-27 14:43 314K
20260427T12Z_MSC_RDPS_WindSpeed_IsbL-0030_RLatLon0.09_PT007H.grib2 2026-04-27 14:43 311K
20260427T12Z_MSC_RDPS_WindSpeed_IsbL-0050_RLatLon0.09_PT007H.grib2 2026-04-27 14:43 342K
20260427T12Z_MSC_RDPS_WindSpeed_IsbL-0100_RLatLon0.09_PT007H.grib2 2026-04-27 14:43 469K
20260427T12Z_MSC_RDPS_WindSpeed_IsbL-0150_RLatLon0.09_PT007H.grib2 2026-04-27 14:43 373K
20260427T12Z_MSC_RDPS_WindSpeed_IsbL-0175_RLatLon0.09_PT007H.grib2 2026-04-27 14:43 402K
20260427T12Z_MSC_RDPS_WindSpeed_IsbL-0200_RLatLon0.09_PT007H.grib2 2026-04-27 14:43 440K
20260427T12Z_MSC_RDPS_WindSpeed_IsbL-0225_RLatLon0.09_PT007H.grib2 2026-04-27 14:43 446K
20260427T12Z_MSC_RDPS_WindSpeed_IsbL-0250_RLatLon0.09_PT007H.grib2 2026-04-27 14:43 450K
20260427T12Z_MSC_RDPS_WindSpeed_IsbL-0275_RLatLon0.09_PT007H.grib2 2026-04-27 14:43 467K
20260427T12Z_MSC_RDPS_WindSpeed_IsbL-0300_RLatLon0.09_PT007H.grib2 2026-04-27 14:43 466K
20260427T12Z_MSC_RDPS_WindSpeed_IsbL-0350_RLatLon0.09_PT007H.grib2 2026-04-27 14:43 472K
20260427T12Z_MSC_RDPS_WindSpeed_IsbL-0400_RLatLon0.09_PT007H.grib2 2026-04-27 14:43 457K
20260427T12Z_MSC_RDPS_WindSpeed_IsbL-0450_RLatLon0.09_PT007H.grib2 2026-04-27 14:43 455K
20260427T12Z_MSC_RDPS_WindSpeed_IsbL-0500_RLatLon0.09_PT007H.grib2 2026-04-27 14:43 454K
20260427T12Z_MSC_RDPS_WindSpeed_IsbL-0550_RLatLon0.09_PT007H.grib2 2026-04-27 14:43 456K
20260427T12Z_MSC_RDPS_WindSpeed_IsbL-0600_RLatLon0.09_PT007H.grib2 2026-04-27 14:43 586K
20260427T12Z_MSC_RDPS_WindSpeed_IsbL-0650_RLatLon0.09_PT007H.grib2 2026-04-27 14:43 610K
20260427T12Z_MSC_RDPS_WindSpeed_IsbL-0700_RLatLon0.09_PT007H.grib2 2026-04-27 14:43 637K
20260427T12Z_MSC_RDPS_WindSpeed_IsbL-0750_RLatLon0.09_PT007H.grib2 2026-04-27 14:43 710K
20260427T12Z_MSC_RDPS_WindSpeed_IsbL-0800_RLatLon0.09_PT007H.grib2 2026-04-27 14:43 762K
20260427T12Z_MSC_RDPS_WindSpeed_IsbL-0850_RLatLon0.09_PT007H.grib2 2026-04-27 14:43 816K
20260427T12Z_MSC_RDPS_WindSpeed_IsbL-0875_RLatLon0.09_PT007H.grib2 2026-04-27 14:43 790K
20260427T12Z_MSC_RDPS_WindSpeed_IsbL-0900_RLatLon0.09_PT007H.grib2 2026-04-27 14:43 801K
20260427T12Z_MSC_RDPS_WindSpeed_IsbL-0925_RLatLon0.09_PT007H.grib2 2026-04-27 14:43 856K
20260427T12Z_MSC_RDPS_WindSpeed_IsbL-0950_RLatLon0.09_PT007H.grib2 2026-04-27 14:43 856K
20260427T12Z_MSC_RDPS_WindSpeed_IsbL-0970_RLatLon0.09_PT007H.grib2 2026-04-27 14:43 857K
20260427T12Z_MSC_RDPS_WindSpeed_IsbL-0985_RLatLon0.09_PT007H.grib2 2026-04-27 14:43 857K
20260427T12Z_MSC_RDPS_WindSpeed_IsbL-1000_RLatLon0.09_PT007H.grib2 2026-04-27 14:43 851K
20260427T12Z_MSC_RDPS_WindSpeed_IsbL-1015_RLatLon0.09_PT007H.grib2 2026-04-27 14:43 843K
20260427T12Z_MSC_RDPS_WindU_AGL-10m_RLatLon0.09_PT007H.grib2 2026-04-27 14:43 437K
20260427T12Z_MSC_RDPS_WindU_AGL-120m_RLatLon0.09_PT007H.grib2 2026-04-27 14:43 417K
20260427T12Z_MSC_RDPS_WindU_AGL-40m_RLatLon0.09_PT007H.grib2 2026-04-27 14:43 539K
20260427T12Z_MSC_RDPS_WindU_AGL-80m_RLatLon0.09_PT007H.grib2 2026-04-27 14:43 419K
20260427T12Z_MSC_RDPS_WindU_IsbL-0001_RLatLon0.09_PT007H.grib2 2026-04-27 14:43 290K
20260427T12Z_MSC_RDPS_WindU_IsbL-0005_RLatLon0.09_PT007H.grib2 2026-04-27 14:43 327K
20260427T12Z_MSC_RDPS_WindU_IsbL-0010_RLatLon0.09_PT007H.grib2 2026-04-27 14:43 291K
20260427T12Z_MSC_RDPS_WindU_IsbL-0020_RLatLon0.09_PT007H.grib2 2026-04-27 14:43 345K
20260427T12Z_MSC_RDPS_WindU_IsbL-0030_RLatLon0.09_PT007H.grib2 2026-04-27 14:43 344K
20260427T12Z_MSC_RDPS_WindU_IsbL-0050_RLatLon0.09_PT007H.grib2 2026-04-27 14:43 372K
20260427T12Z_MSC_RDPS_WindU_IsbL-0100_RLatLon0.09_PT007H.grib2 2026-04-27 14:43 426K
20260427T12Z_MSC_RDPS_WindU_IsbL-0150_RLatLon0.09_PT007H.grib2 2026-04-27 14:43 391K
20260427T12Z_MSC_RDPS_WindU_IsbL-0175_RLatLon0.09_PT007H.grib2 2026-04-27 14:43 416K
20260427T12Z_MSC_RDPS_WindU_IsbL-0200_RLatLon0.09_PT007H.grib2 2026-04-27 14:43 335K
20260427T12Z_MSC_RDPS_WindU_IsbL-0225_RLatLon0.09_PT007H.grib2 2026-04-27 14:43 340K
20260427T12Z_MSC_RDPS_WindU_IsbL-0250_RLatLon0.09_PT007H.grib2 2026-04-27 14:43 342K
20260427T12Z_MSC_RDPS_WindU_IsbL-0275_RLatLon0.09_PT007H.grib2 2026-04-27 14:43 354K
20260427T12Z_MSC_RDPS_WindU_IsbL-0300_RLatLon0.09_PT007H.grib2 2026-04-27 14:43 352K
20260427T12Z_MSC_RDPS_WindU_IsbL-0350_RLatLon0.09_PT007H.grib2 2026-04-27 14:43 358K
20260427T12Z_MSC_RDPS_WindU_IsbL-0400_RLatLon0.09_PT007H.grib2 2026-04-27 14:43 462K
20260427T12Z_MSC_RDPS_WindU_IsbL-0450_RLatLon0.09_PT007H.grib2 2026-04-27 14:43 461K
20260427T12Z_MSC_RDPS_WindU_IsbL-0500_RLatLon0.09_PT007H.grib2 2026-04-27 14:43 462K
20260427T12Z_MSC_RDPS_WindU_IsbL-0550_RLatLon0.09_PT007H.grib2 2026-04-27 14:43 464K
20260427T12Z_MSC_RDPS_WindU_IsbL-0600_RLatLon0.09_PT007H.grib2 2026-04-27 14:43 476K
20260427T12Z_MSC_RDPS_WindU_IsbL-0650_RLatLon0.09_PT007H.grib2 2026-04-27 14:43 497K
20260427T12Z_MSC_RDPS_WindU_IsbL-0700_RLatLon0.09_PT007H.grib2 2026-04-27 14:43 519K
20260427T12Z_MSC_RDPS_WindU_IsbL-0750_RLatLon0.09_PT007H.grib2 2026-04-27 14:43 546K
20260427T12Z_MSC_RDPS_WindU_IsbL-0800_RLatLon0.09_PT007H.grib2 2026-04-27 14:43 578K
20260427T12Z_MSC_RDPS_WindU_IsbL-0850_RLatLon0.09_PT007H.grib2 2026-04-27 14:43 635K
20260427T12Z_MSC_RDPS_WindU_IsbL-0875_RLatLon0.09_PT007H.grib2 2026-04-27 14:43 650K
20260427T12Z_MSC_RDPS_WindU_IsbL-0900_RLatLon0.09_PT007H.grib2 2026-04-27 14:43 651K
20260427T12Z_MSC_RDPS_WindU_IsbL-0925_RLatLon0.09_PT007H.grib2 2026-04-27 14:43 656K
20260427T12Z_MSC_RDPS_WindU_IsbL-0950_RLatLon0.09_PT007H.grib2 2026-04-27 14:43 653K
20260427T12Z_MSC_RDPS_WindU_IsbL-0970_RLatLon0.09_PT007H.grib2 2026-04-27 14:43 653K
20260427T12Z_MSC_RDPS_WindU_IsbL-0985_RLatLon0.09_PT007H.grib2 2026-04-27 14:43 652K
20260427T12Z_MSC_RDPS_WindU_IsbL-1000_RLatLon0.09_PT007H.grib2 2026-04-27 14:43 790K
20260427T12Z_MSC_RDPS_WindU_IsbL-1015_RLatLon0.09_PT007H.grib2 2026-04-27 14:43 786K
20260427T12Z_MSC_RDPS_WindV_AGL-10m_RLatLon0.09_PT007H.grib2 2026-04-27 14:43 436K
20260427T12Z_MSC_RDPS_WindV_AGL-120m_RLatLon0.09_PT007H.grib2 2026-04-27 14:43 416K
20260427T12Z_MSC_RDPS_WindV_AGL-40m_RLatLon0.09_PT007H.grib2 2026-04-27 14:43 420K
20260427T12Z_MSC_RDPS_WindV_AGL-80m_RLatLon0.09_PT007H.grib2 2026-04-27 14:43 417K
20260427T12Z_MSC_RDPS_WindV_IsbL-0001_RLatLon0.09_PT007H.grib2 2026-04-27 14:43 264K
20260427T12Z_MSC_RDPS_WindV_IsbL-0005_RLatLon0.09_PT007H.grib2 2026-04-27 14:43 325K
20260427T12Z_MSC_RDPS_WindV_IsbL-0010_RLatLon0.09_PT007H.grib2 2026-04-27 14:43 292K
20260427T12Z_MSC_RDPS_WindV_IsbL-0020_RLatLon0.09_PT007H.grib2 2026-04-27 14:43 306K
20260427T12Z_MSC_RDPS_WindV_IsbL-0030_RLatLon0.09_PT007H.grib2 2026-04-27 14:43 306K
20260427T12Z_MSC_RDPS_WindV_IsbL-0050_RLatLon0.09_PT007H.grib2 2026-04-27 14:43 336K
20260427T12Z_MSC_RDPS_WindV_IsbL-0100_RLatLon0.09_PT007H.grib2 2026-04-27 14:43 326K
20260427T12Z_MSC_RDPS_WindV_IsbL-0150_RLatLon0.09_PT007H.grib2 2026-04-27 14:43 388K
20260427T12Z_MSC_RDPS_WindV_IsbL-0175_RLatLon0.09_PT007H.grib2 2026-04-27 14:43 416K
20260427T12Z_MSC_RDPS_WindV_IsbL-0200_RLatLon0.09_PT007H.grib2 2026-04-27 14:43 335K
20260427T12Z_MSC_RDPS_WindV_IsbL-0225_RLatLon0.09_PT007H.grib2 2026-04-27 14:43 364K
20260427T12Z_MSC_RDPS_WindV_IsbL-0250_RLatLon0.09_PT007H.grib2 2026-04-27 14:43 366K
20260427T12Z_MSC_RDPS_WindV_IsbL-0275_RLatLon0.09_PT007H.grib2 2026-04-27 14:43 378K
20260427T12Z_MSC_RDPS_WindV_IsbL-0300_RLatLon0.09_PT007H.grib2 2026-04-27 14:43 374K
20260427T12Z_MSC_RDPS_WindV_IsbL-0350_RLatLon0.09_PT007H.grib2 2026-04-27 14:43 379K
20260427T12Z_MSC_RDPS_WindV_IsbL-0400_RLatLon0.09_PT007H.grib2 2026-04-27 14:43 356K
20260427T12Z_MSC_RDPS_WindV_IsbL-0450_RLatLon0.09_PT007H.grib2 2026-04-27 14:43 355K
20260427T12Z_MSC_RDPS_WindV_IsbL-0500_RLatLon0.09_PT007H.grib2 2026-04-27 14:43 456K
20260427T12Z_MSC_RDPS_WindV_IsbL-0550_RLatLon0.09_PT007H.grib2 2026-04-27 14:43 459K
20260427T12Z_MSC_RDPS_WindV_IsbL-0600_RLatLon0.09_PT007H.grib2 2026-04-27 14:43 471K
20260427T12Z_MSC_RDPS_WindV_IsbL-0650_RLatLon0.09_PT007H.grib2 2026-04-27 14:43 492K
20260427T12Z_MSC_RDPS_WindV_IsbL-0700_RLatLon0.09_PT007H.grib2 2026-04-27 14:43 515K
20260427T12Z_MSC_RDPS_WindV_IsbL-0750_RLatLon0.09_PT007H.grib2 2026-04-27 14:43 540K
20260427T12Z_MSC_RDPS_WindV_IsbL-0800_RLatLon0.09_PT007H.grib2 2026-04-27 14:43 571K
20260427T12Z_MSC_RDPS_WindV_IsbL-0850_RLatLon0.09_PT007H.grib2 2026-04-27 14:43 621K
20260427T12Z_MSC_RDPS_WindV_IsbL-0875_RLatLon0.09_PT007H.grib2 2026-04-27 14:43 638K
20260427T12Z_MSC_RDPS_WindV_IsbL-0900_RLatLon0.09_PT007H.grib2 2026-04-27 14:43 647K
20260427T12Z_MSC_RDPS_WindV_IsbL-0925_RLatLon0.09_PT007H.grib2 2026-04-27 14:43 653K
20260427T12Z_MSC_RDPS_WindV_IsbL-0950_RLatLon0.09_PT007H.grib2 2026-04-27 14:43 651K
20260427T12Z_MSC_RDPS_WindV_IsbL-0970_RLatLon0.09_PT007H.grib2 2026-04-27 14:43 651K
20260427T12Z_MSC_RDPS_WindV_IsbL-0985_RLatLon0.09_PT007H.grib2 2026-04-27 14:43 651K
20260427T12Z_MSC_RDPS_WindV_IsbL-1000_RLatLon0.09_PT007H.grib2 2026-04-27 14:43 788K
20260427T12Z_MSC_RDPS_WindV_IsbL-1015_RLatLon0.09_PT007H.grib2 2026-04-27 14:43 782K